Terminal Aerodrome Forecast
Issued by NWS Denver/Boulder, CO

Home | Current Version | Previous Version | Text Only | Print | Product List | Glossary On
Versions: 1 2 3 4 5 6 7 8 9 10 11 12 13 14 15 16 17 18 19 20 21 22 23 24 25 26 27 28 29 30 31 32 33 34 35 36 37 38 39 40 41 42 43 44 45
000
FTUS45 KBOU 232343
TAFDEN
TAF
KDEN 232343Z 2400/2506 03008KT P6SM FEW080
     FM241100 21010KT P6SM FEW140
     FM241800 02014KT P6SM SCT140
     FM250200 20010KT P6SM FEW140=

USA.gov is the U.S. government's official web portal to all federal, state and local government web resources and services.